N7NMS-13 Weather Reports


time (UTC)temp
C
wind
direction
speed
KPH
gust
KPH
rain 1hr
cm
rain 24hr
cm
rain mn
cm
humidity
%
barometer
mb
20260509211046 18 15 0.0 0.0 0.00 0.00 0.00 63
20260509210016 18 28 0.0 0.0 0.00 0.00 0.00 62
20260509205016 17 25 0.0 0.0 0.00 0.00 0.00 66
20260509204016 17 27 1.6 0.0 0.00 0.00 0.00 64
20260509203016 17 38 1.6 0.0 0.00 0.00 0.00 65
20260509202015 17 53 0.0 0.0 0.00 0.00 0.00 66
20260509201015 17 8 1.6 0.0 0.00 0.00 0.00 65
20260509200015 17 42 0.0 0.0 0.00 0.00 0.00 67
20260509195015 17 52 0.0 0.0 0.00 0.00 0.00 67
20260509194015 17 31 0.0 0.0 0.00 0.00 0.00 68
20260509193015 17 20 0.0 0.0 0.00 0.00 0.00 67
20260509192015 17 38 0.0 0.0 0.00 0.00 0.00 69
20260509191015 17 96 3.2 0.0 0.00 0.00 0.00 69
20260509190015 16 75 3.2 0.0 0.00 0.00 0.00 70
20260509184945 16 63 0.0 0.0 0.00 0.00 0.00 70
20260509183945 16 34 0.0 0.0 0.00 0.00 0.00 71
20260509182945 16 77 1.6 0.0 0.00 0.00 0.00 70
20260509181945 16 17 1.6 0.0 0.00 0.00 0.00 71
20260509180945 16 70 3.2 0.0 0.00 0.00 0.00 71
20260509175945 16 68 1.6 0.0 0.00 0.00 0.00 72
20260509174914 15 39 0.0 0.0 0.00 0.00 0.00 71
20260509173914 15 37 6.4 0.0 0.00 0.00 0.00 72
20260509172914 15 62 3.2 0.0 0.00 0.00 0.00 73
20260509171914 15 31 3.2 0.0 0.00 0.00 0.00 76
20260509170914 15 55 0.0 0.0 0.00 0.00 0.00 76
20260509165914 14 56 3.2 0.0 0.00 0.00 0.00 81
20260509164914 14 34 0.0 0.0 0.00 0.00 0.00 80
20260509163913 14 70 0.0 0.0 0.00 0.00 0.00 81
20260509162913 14 55 0.0 0.0 0.00 0.00 0.00 83
20260509161843 13 55 0.0 0.0 0.00 0.00 0.00 84
20260509160843 13 46 4.8 0.0 0.00 0.00 0.00 85
20260509155843 13 226 0.0 0.0 0.00 0.00 0.00 86
20260509154843 13 226 0.0 0.0 0.00 0.00 0.00 87
20260509153843 12 226 0.0 0.0 0.00 0.00 0.00 89
20260509152842 12 226 0.0 0.0 0.00 0.00 0.00 90
20260509151842 13 226 0.0 0.0 0.00 0.00 0.00 90
20260509150842 12 226 0.0 0.0 0.00 0.00 0.00 89
20260509145842 12 226 0.0 0.0 0.00 0.00 0.00 90
20260509144842 12 226 0.0 0.0 0.00 0.00 0.00 90
20260509143842 12 226 0.0 0.0 0.00 0.00 0.00 92
20260509142842 12 226 0.0 0.0 0.00 0.00 0.00 93
20260509141842 12 226 0.0 0.0 0.00 0.00 0.00 93
20260509140842 12 226 0.0 0.0 0.00 0.00 0.00 93
20260509135812 12 226 0.0 0.0 0.00 0.00 0.00 91
20260509134812 11 226 0.0 0.0 0.00 0.00 0.00 92
20260509133812 11 226 0.0 0.0 0.00 0.00 0.00 94
20260509132812 11 226 0.0 0.0 0.00 0.00 0.00 94
20260509131742 11 226 0.0 0.0 0.00 0.00 0.00 93
20260509130742 11 226 0.0 0.0 0.00 0.00 0.00 93
20260509125712 11 226 0.0 0.0 0.00 0.00 0.00 94
20260509124712 11 226 0.0 0.0 0.00 0.00 0.00 94
20260509123643 11 226 0.0 0.0 0.00 0.00 0.00 93
20260509122642 11 226 0.0 0.0 0.00 0.00 0.00 92
20260509121642 11 226 0.0 0.0 0.00 0.00 0.00 91
20260509120641 11 226 0.0 0.0 0.00 0.00 0.00 89
20260509115641 11 226 0.0 0.0 0.00 0.00 0.00 86
20260509114641 12 226 0.0 0.0 0.00 0.00 0.00 84
20260509113641 11 188 0.0 0.0 0.00 0.00 0.00 84
20260509112641 12 188 0.0 0.0 0.00 0.00 0.00 85
20260509111611 12 188 0.0 0.0 0.00 0.00 0.00 85
20260509110541 11 188 0.0 0.0 0.00 0.00 0.00 83
20260509105541 11 188 0.0 0.0 0.00 0.00 0.00 83
20260509104541 11 188 0.0 0.0 0.00 0.00 0.00 83
20260509103541 11 188 0.0 0.0 0.00 0.00 0.00 83
20260509102541 11 188 0.0 0.0 0.00 0.00 0.00 84
20260509101541 10 91 0.0 0.0 0.00 0.00 0.00 86
20260509100541 10 91 0.0 0.0 0.00 0.00 0.00 86
20260509095540 10 91 0.0 0.0 0.00 0.00 0.00 87
20260509094540 10 91 0.0 0.0 0.00 0.00 0.00 87
20260509093540 10 91 0.0 0.0 0.00 0.00 0.00 87
20260509092540 10 91 0.0 0.0 0.00 0.00 0.00 87
20260509091540 10 91 0.0 0.0 0.00 0.00 0.00 86
20260509090540 10 91 0.0 0.0 0.00 0.00 0.00 87
20260509085540 10 91 0.0 0.0 0.00 0.00 0.00 86
20260509084540 10 91 0.0 0.0 0.00 0.00 0.00 86
20260509083539 10 91 0.0 0.0 0.00 0.00 0.00 86
20260509082539 10 91 0.0 0.0 0.00 0.00 0.00 86
20260509081539 10 91 0.0 0.0 0.00 0.00 0.00 86
20260509080509 10 91 0.0 0.0 0.00 0.00 0.00 87
20260509075509 10 91 0.0 0.0 0.00 0.00 0.00 86
20260509074509 11 91 0.0 0.0 0.00 0.00 0.00 85
20260509073509 10 91 0.0 0.0 0.00 0.00 0.00 85
20260509072509 10 91 0.0 0.0 0.00 0.00 0.00 84
20260509071509 10 91 0.0 0.0 0.00 0.00 0.00 83
20260509070509 10 91 0.0 0.0 0.00 0.00 0.00 83
20260509065508 10 91 0.0 0.0 0.00 0.00 0.00 83
20260509064508 10 91 0.0 0.0 0.00 0.00 0.00 82
20260509063508 10 91 0.0 0.0 0.00 0.00 0.00 84
20260509062508 10 91 0.0 0.0 0.00 0.00 0.00 83
20260509061508 11 91 0.0 0.0 0.00 0.00 0.00 80
20260509060508 11 91 0.0 0.0 0.00 0.00 0.00 79
20260509055508 11 91 0.0 0.0 0.00 0.00 0.00 77
20260509054507 11 91 0.0 0.0 0.00 0.00 0.00 76
20260509053507 11 91 0.0 0.0 0.00 0.00 0.00 77
20260509052507 11 91 0.0 0.0 0.00 0.00 0.00 74
20260509051507 11 91 0.0 0.0 0.00 0.00 0.00 75
20260509050507 11 91 0.0 0.0 0.00 0.00 0.00 75
20260509045507 12 91 0.0 0.0 0.00 0.00 0.00 75
20260509044507 12 91 0.0 0.0 0.00 0.00 0.00 76
20260509043507 12 91 0.0 0.0 0.00 0.00 0.00 73
20260509042507 12 91 0.0 0.0 0.00 0.00 0.00 74
20260509041507 12 91 0.0 0.0 0.00 0.00 0.00 73
20260509040506 12 91 0.0 0.0 0.00 0.00 0.00 75
20260509035506 12 91 0.0 0.0 0.00 0.00 0.00 73
20260509034507 12 91 0.0 0.0 0.00 0.00 0.00 73
20260509033437 12 91 0.0 0.0 0.00 0.00 0.00 72
20260509032437 12 91 0.0 0.0 0.00 0.00 0.00 72
20260509031407 12 91 0.0 0.0 0.00 0.00 0.00 73
20260509030407 12 91 0.0 0.0 0.00 0.00 0.00 72
20260509025407 12 91 0.0 0.0 0.00 0.00 0.00 70
20260509024407 12 91 0.0 0.0 0.00 0.00 0.00 69
20260509023407 13 91 0.0 0.0 0.00 0.00 0.00 68
20260509022337 13 91 0.0 0.0 0.00 0.00 0.00 66
20260509021337 14 91 0.0 0.0 0.00 0.00 0.00 65
20260509020337 13 91 0.0 0.0 0.00 0.00 0.00 65
20260509015307 13 91 0.0 0.0 0.00 0.00 0.00 65
20260509014307 13 91 0.0 0.0 0.00 0.00 0.00 64
20260509013307 13 91 0.0 0.0 0.00 0.00 0.00 64
20260509012307 13 91 0.0 0.0 0.00 0.00 0.00 64
20260509011307 13 91 0.0 0.0 0.00 0.00 0.00 65
20260509010237 13 91 0.0 0.0 0.00 0.00 0.00 63
20260509005237 13 91 0.0 0.0 0.00 0.00 0.00 64
20260509004237 13 91 0.0 0.0 0.00 0.00 0.00 63
20260509003237 14 91 0.0 0.0 0.00 0.00 0.00 61
20260509002237 14 91 0.0 0.0 0.00 0.00 0.00 58
20260509001237 15 91 0.0 0.0 0.00 0.00 0.00 58
20260509000236 16 91 0.0 0.0 0.00 0.00 0.00 52
20260508235236 17 91 0.0 0.0 0.00 0.00 0.00 47
20260508234236 17 91 0.0 0.0 0.00 0.00 0.00 46
20260508233236 17 131 0.0 0.0 0.00 0.00 0.00 44
20260508232206 17 205 0.0 0.0 0.00 0.00 0.00 44
20260508231206 17 202 6.4 0.0 0.00 0.00 0.00 45
20260508230206 18 136 0.0 0.0 0.00 0.00 0.00 45
20260508225136 17 180 0.0 0.0 0.00 0.00 0.00 44
20260508224106 17 210 1.6 0.0 0.00 0.00 0.00 43
20260508223036 18 214 3.2 0.0 0.00 0.00 0.00 42
20260508222006 18 193 0.0 0.0 0.00 0.00 0.00 44
20260508220936 18 158 0.0 0.0 0.00 0.00 0.00 45
20260508215906 18 194 1.6 0.0 0.00 0.00 0.00 44
20260508214836 17 124 1.6 0.0 0.00 0.00 0.00 44
20260508213836 17 184 1.6 0.0 0.00 0.00 0.00 45
20260508212836 17 186 4.8 0.0 0.00 0.00 0.00 46